Flag for Israel Weather past 2 weeks in Hadera, Israel

Now
86 °F

Passing clouds.


Feels Like: 83 °F
Forecast: 64 / 81 °F
Wind: 9 mph from Northeast

Location: Dov Airport


UV Index: 7 (High)

Visibility: N/A


Pressure: 29.86 "Hg

Humidity: 25%

Dew point: 46 °F

Location of HaderaLocation

Historic Weather in Hadera

°F

Hadera temperature yesterday

Maximum temperature yesterday: 84 °F (at 4:50 PM)
Minimum temperature yesterday: 61 °F (at 5:50 AM)
Average temperature yesterday: 76 °F

Past Weeks' High & Low Weather Summary

 TemperatureHumidityPressure
High86 °F (Apr 7, 9:50 AM)88% (Apr 5, 6:50 AM)30.12 "Hg (Apr 5, 6:50 AM)
Low57 °F (Apr 5, 4:50 AM)19% (Apr 7, 9:50 AM)29.80 "Hg (Apr 7, 5:50 AM)
Average70 °F64%29.93 "Hg
* Reported Apr 4 4:50 PM — Apr 19 4:50 PM, Hadera, Weather by CustomWeather, © 2014

Note: Actual official high and low records may vary slightly from our data, if they occured in-between our weather recording intervals... More about our weather records

Advertising

Historic Weather Conditions — Data for Previous 24 hours

 ConditionsComfort  
Time TempWeatherWind HumidityBarometerVisibility
4:50 PM
Apr 19
86 °FPassing clouds.9 mph25%29.86 "HgN/A
3:50 PM75 °FSunny.14 mph61%29.89 "Hg10 mi
2:50 PM82 °FSunny.15 mph48%29.83 "Hg10 mi
1:57 PM86 °FSunny.17 mph35%29.86 "Hg10 mi
12:50 PM79 °FSunny.12 mph51%29.92 "Hg10 mi
11:50 AM84 °FSunny.12 mph33%29.89 "Hg10 mi
10:50 AM84 °FSunny.8 mph31%29.89 "Hg10 mi
9:50 AM84 °FSunny.7 mph29%29.92 "Hg10 mi
8:50 AM82 °FSunny.3 mph40%29.89 "Hg10 mi
7:50 AM77 °FSunny.3 mph44%29.89 "Hg10 mi
6:50 AM73 °FClear.6 mph53%29.86 "Hg10 mi
5:50 AM75 °FPassing clouds.9 mph54%29.86 "HgN/A
4:50 AM81 °FClear.8 mph21%29.80 "Hg10 mi
9:50 PM
Apr 18
79 °FClear.7 mph32%29.86 "Hg10 mi
8:50 PM81 °FClear.3 mph30%29.86 "Hg10 mi
7:50 PM81 °FSunny.6 mph30%29.86 "Hg10 mi
6:50 PM82 °FSunny.5 mph40%29.86 "Hg10 mi
5:50 PM84 °FSunny.8 mph27%29.89 "Hg10 mi
Weather by CustomWeather, © 2014

See weather overview